N258LJ KJAC-KWYS

Flight info

Callsign N258LJ
Flight time 0h 47m
Altitude 18000
Route TETON3 IDA
Aircraft TBM9/L-SDFGRWY/S

Departure

Time 2026-05-07 20:29
Airport Jackson Hole Airport (KJAC)

Arrival

Time 2026-05-07 21:16
Airport Yellowstone Airport (KWYS)
Time Latitude Longitude Altitude Speed Heading
2026-05-07 20:17 43.60019 -110.73898 6426 ft 0 kts 110°
2026-05-07 20:20 43.60002 -110.73886 6424 ft 6 kts 194°
2026-05-07 20:21 43.59996 -110.73934 6423 ft 5 kts 288°
2026-05-07 20:21 43.60034 -110.73954 6424 ft 10 kts
2026-05-07 20:21 43.60133 -110.73908 6425 ft 19 kts 21°
2026-05-07 20:21 43.60258 -110.73846 6425 ft 19 kts 16°
2026-05-07 20:22 43.60372 -110.73791 6425 ft 16 kts 18°
2026-05-07 20:22 43.60467 -110.73745 6422 ft 13 kts 20°
2026-05-07 20:22 43.60546 -110.73705 6425 ft 11 kts 19°
2026-05-07 20:22 43.60609 -110.73675 6426 ft 8 kts 17°
2026-05-07 20:23 43.60661 -110.73649 6424 ft 8 kts 21°
2026-05-07 20:23 43.60718 -110.73621 6424 ft 10 kts 19°
2026-05-07 20:23 43.60825 -110.73569 6423 ft 22 kts 19°
2026-05-07 20:23 43.60991 -110.73488 6426 ft 28 kts 20°
2026-05-07 20:24 43.61171 -110.73391 6424 ft 27 kts 32°
2026-05-07 20:24 43.61292 -110.73248 6425 ft 21 kts 23°
2026-05-07 20:24 43.61381 -110.73208 6426 ft 0 kts 359°
2026-05-07 20:27 43.61413 -110.73208 6424 ft 7 kts
2026-05-07 20:27 43.61453 -110.73222 6426 ft 7 kts 331°
2026-05-07 20:27 43.61513 -110.73280 6425 ft 13 kts 303°
2026-05-07 20:27 43.61529 -110.73384 6425 ft 10 kts 219°
2026-05-07 20:28 43.61505 -110.73397 6423 ft 11 kts 201°
2026-05-07 20:28 43.61250 -110.73527 6426 ft 66 kts 200°
2026-05-07 20:28 43.60653 -110.73807 6462 ft 111 kts 204°
2026-05-07 20:28 43.59854 -110.74152 6796 ft 126 kts 201°
2026-05-07 20:29 43.58991 -110.74447 7307 ft 129 kts 200°
2026-05-07 20:29 43.58070 -110.74695 7721 ft 142 kts 194°
2026-05-07 20:29 43.57023 -110.74964 7895 ft 163 kts 193°
2026-05-07 20:29 43.55874 -110.75275 8228 ft 175 kts 192°
2026-05-07 20:30 43.54717 -110.75848 8565 ft 182 kts 211°
2026-05-07 20:30 43.53645 -110.76707 9137 ft 175 kts 218°
2026-05-07 20:30 43.52612 -110.77549 9673 ft 175 kts 218°
2026-05-07 20:30 43.51546 -110.78348 10161 ft 176 kts 208°
2026-05-07 20:31 43.50422 -110.78989 10709 ft 170 kts 212°
2026-05-07 20:31 43.49365 -110.79723 11186 ft 171 kts 214°
2026-05-07 20:31 43.48294 -110.80482 11675 ft 174 kts 213°
2026-05-07 20:31 43.47216 -110.81228 12234 ft 173 kts 213°
2026-05-07 20:32 43.46138 -110.81980 12765 ft 174 kts 213°
2026-05-07 20:32 43.45062 -110.82729 13281 ft 176 kts 214°
2026-05-07 20:32 43.43962 -110.83495 13781 ft 178 kts 213°
2026-05-07 20:32 43.42852 -110.84269 14187 ft 179 kts 214°
2026-05-07 20:33 43.41727 -110.85052 14545 ft 183 kts 215°
2026-05-07 20:33 43.40581 -110.85847 14944 ft 185 kts 213°
2026-05-07 20:33 43.39444 -110.86636 15378 ft 186 kts 214°
2026-05-07 20:33 43.38276 -110.87451 15867 ft 188 kts 214°
2026-05-07 20:34 43.37094 -110.88272 16351 ft 191 kts 214°
2026-05-07 20:34 43.35895 -110.89105 16834 ft 195 kts 214°
2026-05-07 20:34 43.34692 -110.89934 17357 ft 196 kts 214°
2026-05-07 20:34 43.33464 -110.90790 17858 ft 200 kts 215°
2026-05-07 20:35 43.32169 -110.91701 17987 ft 221 kts 214°
2026-05-07 20:35 43.30729 -110.92711 17988 ft 242 kts 213°
2026-05-07 20:35 43.29181 -110.93785 17983 ft 256 kts 213°
2026-05-07 20:35 43.27557 -110.94924 17977 ft 265 kts 215°
2026-05-07 20:36 43.26110 -110.96483 17977 ft 264 kts 231°
2026-05-07 20:36 43.25039 -110.98505 17977 ft 262 kts 249°
2026-05-07 20:36 43.24366 -111.00820 17976 ft 259 kts 258°
2026-05-07 20:36 43.24053 -111.03213 18160 ft 252 kts 270°
2026-05-07 20:37 43.24081 -111.05485 18950 ft 224 kts 279°
2026-05-07 20:37 43.24384 -111.07538 19403 ft 219 kts 289°
2026-05-07 20:37 43.24930 -111.09504 19722 ft 221 kts 294°
2026-05-07 20:37 43.25501 -111.11468 20076 ft 222 kts 293°
2026-05-07 20:38 43.26060 -111.13453 20469 ft 223 kts 294°
2026-05-07 20:38 43.26621 -111.15443 20883 ft 224 kts 294°
2026-05-07 20:38 43.27180 -111.17412 21307 ft 224 kts 294°
2026-05-07 20:38 43.27746 -111.19412 21722 ft 226 kts 294°
2026-05-07 20:39 43.28326 -111.21460 21947 ft 237 kts 294°
2026-05-07 20:39 43.28947 -111.23638 21950 ft 251 kts 294°
2026-05-07 20:39 43.29593 -111.25919 21954 ft 261 kts 294°
2026-05-07 20:39 43.30246 -111.28234 21956 ft 265 kts 294°
2026-05-07 20:40 43.30913 -111.30607 21959 ft 267 kts 294°
2026-05-07 20:40 43.31586 -111.33001 21962 ft 269 kts 294°
2026-05-07 20:40 43.32264 -111.35415 21961 ft 271 kts 294°
2026-05-07 20:40 43.32942 -111.37831 21959 ft 271 kts 294°
2026-05-07 20:41 43.33620 -111.40251 21964 ft 272 kts 294°
2026-05-07 20:41 43.34303 -111.42679 21955 ft 272 kts 294°
2026-05-07 20:41 43.34976 -111.45082 21957 ft 272 kts 294°
2026-05-07 20:41 43.35656 -111.47518 21956 ft 273 kts 294°
2026-05-07 20:42 43.36336 -111.49953 21953 ft 273 kts 294°
2026-05-07 20:42 43.37016 -111.52390 21948 ft 273 kts 294°
2026-05-07 20:42 43.37694 -111.54820 21949 ft 272 kts 294°
2026-05-07 20:42 43.38371 -111.57250 21949 ft 273 kts 294°
2026-05-07 20:43 43.39051 -111.59688 21939 ft 273 kts 294°
2026-05-07 20:43 43.39717 -111.62104 21944 ft 273 kts 292°
2026-05-07 20:43 43.40087 -111.64678 21952 ft 278 kts 276°
2026-05-07 20:43 43.40153 -111.67333 21968 ft 277 kts 279°
2026-05-07 20:44 43.40687 -111.69828 21983 ft 271 kts 298°
2026-05-07 20:44 43.41603 -111.72098 21985 ft 271 kts 301°
2026-05-07 20:44 43.42425 -111.74445 21981 ft 273 kts 296°
2026-05-07 20:44 43.43138 -111.76838 21987 ft 273 kts 295°
2026-05-07 20:45 43.43851 -111.79272 21986 ft 274 kts 295°
2026-05-07 20:45 43.44577 -111.81698 21992 ft 273 kts 295°
2026-05-07 20:45 43.45303 -111.84114 21997 ft 273 kts 295°
2026-05-07 20:45 43.46024 -111.86532 22002 ft 273 kts 295°
2026-05-07 20:46 43.46735 -111.88924 22011 ft 273 kts 295°
2026-05-07 20:46 43.47458 -111.91347 22017 ft 274 kts 296°
2026-05-07 20:46 43.48025 -111.92928 22032 ft 272 kts 302°
2026-05-07 20:46 43.49107 -111.95019 22048 ft 271 kts 311°
2026-05-07 20:47 43.50454 -111.96834 22044 ft 271 kts 321°
2026-05-07 20:47 43.52018 -111.98292 22045 ft 272 kts 330°
2026-05-07 20:47 43.53758 -111.99341 22046 ft 274 kts 339°
2026-05-07 20:47 43.55626 -111.99943 22048 ft 277 kts 349°
2026-05-07 20:48 43.57569 -112.00061 22049 ft 281 kts 359°
2026-05-07 20:48 43.59519 -111.99671 22041 ft 286 kts
2026-05-07 20:48 43.61421 -111.98754 22038 ft 292 kts 19°
2026-05-07 20:48 43.63210 -111.97387 22024 ft 295 kts 25°
2026-05-07 20:49 43.64987 -111.95980 22014 ft 294 kts 24°
2026-05-07 20:49 43.66771 -111.94576 22007 ft 295 kts 24°
2026-05-07 20:49 43.68552 -111.93159 21997 ft 295 kts 24°
2026-05-07 20:49 43.70305 -111.91760 22004 ft 295 kts 24°
2026-05-07 20:50 43.72084 -111.90338 22008 ft 295 kts 24°
2026-05-07 20:50 43.73861 -111.88922 22017 ft 294 kts 24°
2026-05-07 20:50 43.75633 -111.87511 22024 ft 294 kts 24°
2026-05-07 20:50 43.77401 -111.86100 22024 ft 293 kts 24°
2026-05-07 20:51 43.79174 -111.84682 22023 ft 293 kts 24°
2026-05-07 20:51 43.80944 -111.83268 22022 ft 292 kts 24°
2026-05-07 20:51 43.82707 -111.81857 22023 ft 292 kts 24°
2026-05-07 20:51 43.84447 -111.80465 22022 ft 292 kts 24°
2026-05-07 20:52 43.86207 -111.79053 22020 ft 292 kts 24°
2026-05-07 20:52 43.87965 -111.77645 22024 ft 292 kts 24°
2026-05-07 20:52 43.89730 -111.76232 22019 ft 292 kts 24°
2026-05-07 20:52 43.91491 -111.74813 22026 ft 292 kts 24°
2026-05-07 20:53 43.93253 -111.73398 22014 ft 292 kts 24°
2026-05-07 20:53 43.95010 -111.71989 22003 ft 292 kts 24°
2026-05-07 20:53 43.96758 -111.70581 21999 ft 291 kts 24°
2026-05-07 20:53 43.98498 -111.69178 21994 ft 291 kts 24°
2026-05-07 20:54 44.00259 -111.67763 21984 ft 291 kts 24°
2026-05-07 20:54 44.02014 -111.66346 21983 ft 291 kts 24°
2026-05-07 20:54 44.03765 -111.64935 21972 ft 291 kts 24°
2026-05-07 20:54 44.05517 -111.63520 21970 ft 291 kts 24°
2026-05-07 20:55 44.07270 -111.62104 21960 ft 291 kts 24°
2026-05-07 20:55 44.08995 -111.60708 21953 ft 291 kts 24°
2026-05-07 20:55 44.10749 -111.59290 21952 ft 291 kts 24°
2026-05-07 20:55 44.12500 -111.57874 21943 ft 291 kts 24°
2026-05-07 20:56 44.14249 -111.56457 21938 ft 291 kts 24°
2026-05-07 20:56 44.15985 -111.55048 21941 ft 291 kts 24°
2026-05-07 20:56 44.17741 -111.53626 21938 ft 291 kts 24°
2026-05-07 20:56 44.19492 -111.52204 21945 ft 291 kts 24°
2026-05-07 20:57 44.21244 -111.50780 21942 ft 291 kts 25°
2026-05-07 20:57 44.22993 -111.49358 21946 ft 291 kts 24°
2026-05-07 20:57 44.24741 -111.47938 21945 ft 291 kts 24°
2026-05-07 20:57 44.26489 -111.46515 21943 ft 291 kts 24°
2026-05-07 20:58 44.28238 -111.45090 21952 ft 291 kts 24°
2026-05-07 20:58 44.29990 -111.43662 21947 ft 291 kts 24°
2026-05-07 20:58 44.31742 -111.42232 21950 ft 292 kts 25°
2026-05-07 20:58 44.33466 -111.40814 21568 ft 280 kts 25°
2026-05-07 20:59 44.35155 -111.39430 20778 ft 274 kts 25°
2026-05-07 20:59 44.36778 -111.38109 19837 ft 269 kts 25°
2026-05-07 20:59 44.38395 -111.36799 18841 ft 268 kts 26°
2026-05-07 20:59 44.39986 -111.35502 18148 ft 257 kts 27°
2026-05-07 21:00 44.41482 -111.34273 17755 ft 262 kts 26°
2026-05-07 21:00 44.43088 -111.32961 17369 ft 262 kts 27°
2026-05-07 21:00 44.44653 -111.31667 16988 ft 262 kts 27°
2026-05-07 21:00 44.46244 -111.30367 16609 ft 267 kts 27°
2026-05-07 21:01 44.47844 -111.29051 16360 ft 266 kts 27°
2026-05-07 21:01 44.49444 -111.27734 16117 ft 266 kts 27°
2026-05-07 21:01 44.51043 -111.26421 15877 ft 266 kts 27°
2026-05-07 21:01 44.52635 -111.25113 15633 ft 264 kts 27°
2026-05-07 21:02 44.54218 -111.23807 15390 ft 264 kts 27°
2026-05-07 21:02 44.55797 -111.22507 15153 ft 262 kts 27°
2026-05-07 21:02 44.57358 -111.21220 14997 ft 257 kts 26°
2026-05-07 21:02 44.58917 -111.20127 14988 ft 243 kts 11°
2026-05-07 21:03 44.60550 -111.19822 15001 ft 234 kts
2026-05-07 21:03 44.62160 -111.19605 14999 ft 231 kts
2026-05-07 21:03 44.63730 -111.19375 15004 ft 229 kts
2026-05-07 21:03 44.65323 -111.19142 15004 ft 230 kts
2026-05-07 21:04 44.66914 -111.18905 14994 ft 229 kts
2026-05-07 21:04 44.68506 -111.18673 15003 ft 233 kts
2026-05-07 21:04 44.70151 -111.18438 15000 ft 240 kts
2026-05-07 21:04 44.71836 -111.18200 15004 ft 247 kts
2026-05-07 21:05 44.73565 -111.17960 15009 ft 253 kts
2026-05-07 21:05 44.75309 -111.17478 15014 ft 261 kts 16°
2026-05-07 21:05 44.76989 -111.16445 15009 ft 266 kts 22°
2026-05-07 21:05 44.78657 -111.15327 14830 ft 261 kts 22°
2026-05-07 21:06 44.80271 -111.14231 14576 ft 255 kts 22°
2026-05-07 21:06 44.81852 -111.13149 14331 ft 250 kts 22°
2026-05-07 21:06 44.83403 -111.12082 14080 ft 247 kts 21°
2026-05-07 21:06 44.84929 -111.11027 13843 ft 249 kts 21°
2026-05-07 21:07 44.86489 -111.09943 13581 ft 250 kts 22°
2026-05-07 21:07 44.88049 -111.08861 13319 ft 250 kts 21°
2026-05-07 21:07 44.89607 -111.07782 13057 ft 249 kts 21°
2026-05-07 21:07 44.91153 -111.06721 12964 ft 243 kts 21°
2026-05-07 21:08 44.92646 -111.05685 12961 ft 236 kts 22°
2026-05-07 21:08 44.94112 -111.04662 12951 ft 235 kts 21°
2026-05-07 21:08 44.95614 -111.03614 12952 ft 246 kts 22°
2026-05-07 21:08 44.97165 -111.02524 12681 ft 246 kts 22°
2026-05-07 21:09 44.98684 -111.01462 12435 ft 242 kts 22°
2026-05-07 21:09 45.00079 -111.00132 12176 ft 246 kts 44°
2026-05-07 21:09 45.00821 -110.97990 11962 ft 251 kts 78°
2026-05-07 21:09 45.00642 -110.95610 11937 ft 234 kts 114°
2026-05-07 21:10 44.99662 -110.93913 11942 ft 224 kts 147°
2026-05-07 21:10 44.98358 -110.92700 11947 ft 223 kts 156°
2026-05-07 21:10 44.96873 -110.92233 11938 ft 218 kts 190°
2026-05-07 21:10 44.95501 -110.92923 11947 ft 207 kts 216°
2026-05-07 21:11 44.94259 -110.93978 11948 ft 210 kts 218°
2026-05-07 21:11 44.92972 -110.95034 11742 ft 218 kts 214°
2026-05-07 21:11 44.90162 -110.96980 11169 ft 226 kts 212°
2026-05-07 21:12 44.88786 -110.97949 10867 ft 218 kts 212°
2026-05-07 21:12 44.87441 -110.98885 10581 ft 214 kts 212°
2026-05-07 21:12 44.86110 -110.99790 10304 ft 212 kts 212°
2026-05-07 21:12 44.84763 -111.00727 10036 ft 215 kts 212°
2026-05-07 21:13 44.83495 -111.01622 9756 ft 201 kts 213°
2026-05-07 21:13 44.82202 -111.02513 9477 ft 212 kts 212°
2026-05-07 21:13 44.80871 -111.03428 9176 ft 217 kts 213°
2026-05-07 21:13 44.79547 -111.04412 8881 ft 214 kts 213°
2026-05-07 21:14 44.78202 -111.05304 8586 ft 212 kts 211°
2026-05-07 21:14 44.76931 -111.06152 8322 ft 182 kts 212°
2026-05-07 21:14 44.75948 -111.06815 8105 ft 143 kts 213°
2026-05-07 21:14 44.75081 -111.07433 7932 ft 141 kts 213°
2026-05-07 21:15 44.74207 -111.08058 7724 ft 138 kts 214°
2026-05-07 21:15 44.73347 -111.08660 7541 ft 138 kts 212°
2026-05-07 21:15 44.72469 -111.09268 7317 ft 143 kts 211°
2026-05-07 21:15 44.71594 -111.09892 7073 ft 139 kts 212°
2026-05-07 21:16 44.70767 -111.10445 6874 ft 130 kts 210°
2026-05-07 21:16 44.69984 -111.10971 6711 ft 117 kts 213°
2026-05-07 21:16 44.69373 -111.11403 6652 ft 80 kts 212°
2026-05-07 21:16 44.69094 -111.11594 6656 ft 21 kts 206°
2026-05-07 21:17 44.68919 -111.11714 6655 ft 38 kts 205°
2026-05-07 21:17 44.68620 -111.11921 6659 ft 54 kts 206°
2026-05-07 21:17 44.68472 -111.11947 6656 ft 17 kts 120°
2026-05-07 21:17 44.68482 -111.11845 6653 ft 11 kts 36°
2026-05-07 21:18 44.68564 -111.11787 6653 ft 17 kts 25°
2026-05-07 21:18 44.68675 -111.11710 6656 ft 14 kts 26°
2026-05-07 21:18 44.68768 -111.11645 6654 ft 15 kts 25°
2026-05-07 21:18 44.68862 -111.11577 6655 ft 13 kts 44°
2026-05-07 21:19 44.68851 -111.11487 6652 ft 7 kts 108°
2026-05-07 21:19 44.68887 -111.11447 6656 ft 8 kts 25°
2026-05-07 21:19 44.68914 -111.11414 6652 ft 5 kts 89°
2026-05-07 21:19 44.68902 -111.11386 6652 ft 0 kts 176°
2026-05-07 21:20 44.68891 -111.11394 6655 ft 6 kts 206°
2026-05-07 21:20 44.68874 -111.11406 6654 ft 0 kts 206°